[Iaude] MPEC V153: 2023 VW4 [a=1.75,e=0.37,i=39.9,H=22.0]
    mpec at marsden.cfa.harvard.edu 
    mpec at marsden.cfa.harvard.edu
       
    Thu Nov  9 20:20:14 EST 2023
    
    
  
M.P.E.C. 2023-V153                            Issued 2023 November 10, 01:18 UT
     The Minor Planet Electronic Circulars contain information on unusual
         minor planets, routine data on comets and natural satellites,
         and occasional editorial announcements.  They are published
    on behalf of Division F of the International Astronomical Union by the
          Minor Planet Center, Smithsonian Astrophysical Observatory,
                          Cambridge, MA 02138, U.S.A.
			  
             Prepared using the Tamkin Foundation Computer Network
                              MPC at CFA.HARVARD.EDU
            URL https://www.minorplanetcenter.net/    ISSN 1523-6714
                                    2023 VW4                                    
Observations:
     K23V04W 1C2023 10 20.17552 23 55 57.84 +45 59 04.3          21.4 GVEV153G96
     K23V04W 1C2023 10 20.18593 23 55 58.27 +45 57 59.3          21.6 GVEV153G96
     K23V04W  C2023 11 08.27550700 24 28.569-07 55 12.13         20.36GVEV153F52
     K23V04W  C2023 11 08.31825800 24 32.950-08 03 09.71         20.40GVEV153F52
     K23V04W*1C2023 11 09.22548700 26 21.196-10 49 16.64         20.57GVEV153G96
     K23V04W 1C2023 11 09.23066000 26 21.757-10 50 12.26         19.98GVEV153G96
     K23V04W 1C2023 11 09.23581900 26 22.283-10 51 07.96         19.99GVEV153G96
     K23V04W 1C2023 11 09.24098800 26 22.765-10 52 03.36         20.31GVEV153G96
     K23V04W  C2023 11 09.26031300 26 24.784-10 55 32.30         20.1 GVEV153H01
     K23V04W  C2023 11 09.26470900 26 25.260-10 56 19.65         19.9 GVEV153H01
     K23V04W KC2023 11 09.27906800 26 26.905-10 58 53.40         20.37GVEV153I52
     K23V04W  C2023 11 09.28295900 26 27.238-10 59 36.15         20.5 GVEV153H01
     K23V04W KC2023 11 09.28308600 26 27.352-10 59 36.85         20.28GVEV153I52
     K23V04W KC2023 11 09.28459500 26 27.488-10 59 52.66         20.36GVEV153I52
     K23V04W KC2023 11 09.28611900 26 27.665-11 00 09.04         20.74GVEV153I52
     K23V04W  C2023 11 09.28751300 26 27.746-11 00 24.73         20.4 GVEV153H01
     K23V04W 1C2023 11 09.93186 00 27 46.73 -12 54 37.9          20.0 VXEV153033
     K23V04W 1C2023 11 09.93289 00 27 46.88 -12 54 48.3          20.1 VXEV153033
     K23V04W 1C2023 11 09.93393 00 27 46.95 -12 54 59.8          20.6 VXEV153033
Observer details:
033 Karl Schwarzschild Observatory, Tautenburg.  Observers S. Melnikov, C.
    Hogner, F. Ludwig, M. Hartmann, B. Stecklum.  Measurer B. Stecklum.
    1.34-m f/3 Schmidt + CCD.
F52 Pan-STARRS 2, Haleakala.  Observers J. Bulger, T. Lowe, P. Minguez, A.
    Schultz, I. Smith.  Measurers K. Chambers, T. de Boer, J. Fairlamb, H.
    Gao, M. Huber, C.-C. Lin, E. Magnier, Y. Ramanjooloo, R. Wainscoat, R.
    Weryk.  1.8-m Ritchey-Chretien + CCD.
G96 Mt. Lemmon Survey.  Observers J. K. Hogan, D. Rankin.  Measurers B. Gray,
    D. Rankin, F. C. Shelly, E. C. Beshore, D. Fay, J. B. Fazekas, D. C. Fuls,
    A. R. Gibbs, A. D. Grauer, H. Groeller, J. K. Hogan, R. A. Kowalski, S. M.
    Larson, G. J. Leonard, R. L. Seaman, K. W. Wierzchos.  1.5-m reflector +
    10K CCD.
H01 Magdalena Ridge Observatory, Socorro.  Observers W. H. Ryan, E. V. Ryan.
    Measurer W. H. Ryan.  2.4-m f/8.9 Ritchey-Chretien + CCD.
I52 Steward Observatory, Mt. Lemmon Station.  Observer H. Groeller.  Measurers
    E. C. Beshore, D. Fay, J. B. Fazekas, D. C. Fuls, A. R. Gibbs, A. D.
    Grauer, H. Groeller, J. K. Hogan, R. A. Kowalski, S. M. Larson, G. J.
    Leonard, D. Rankin, R. L. Seaman, F. C. Shelly, K. W. Wierzchos.  1.0-m
    prime focus + CCD.
Orbital elements:
2023 VW4                                                 Earth MOID = 0.1644 AU
Epoch 2023 Sept. 13.0 TT = JDT 2460200.5                Veres                   
M 321.93646              (2000.0)            P               Q                  
n   0.42401855     Peri.  215.04841     +0.40279325     -0.83404005             
a   1.7547401      Node   216.02929     +0.91528060     +0.36507030             
e   0.3696726      Incl.   39.86291     -0.00436111     -0.41364340             
P   2.32           H   22.09          G   0.15           U   8                  
Residuals in seconds of arc
231020 G96  0.1-  0.0     231109 G96  0.8-  0.3+    231109 I52  0.2-  0.2+
231020 G96  0.1+  0.0     231109 H01  0.1+  0.1+    231109 H01  0.1+  0.0
231108 F52  0.0   0.0     231109 H01  0.1+  0.0     231109 033  0.3-  0.2-
231108 F52  0.0   0.0     231109 I52  0.2-  0.0     231109 033  0.2+  0.2+
231109 G96  0.5+  0.1-    231109 H01  0.0   0.3-    231109 033  0.5-  0.4-
231109 G96  0.6+  0.1+    231109 I52  0.0   0.2-
231109 G96  0.2+  0.0     231109 I52  0.4-  0.2+
Ephemeris:
2023 VW4                 a,e,i = 1.75, 0.37, 40                  q = 1.1061
Date    TT    R. A. (2000) Decl.     Delta      r    Elong.  Phase     V
2023 10 11    23 50 22.2 +57 38 57   0.3685  1.2559   127.1    39.3    22.0
...
2023 10 26    00 02 23.0 +33 34 54   0.2355  1.1965   145.8    27.8    20.6
...
2023 11 03    00 14 37.2 +09 23 46   0.2063  1.1697   146.4    28.0    20.2
...
2023 11 09    00 25 54.3 -10 07 56   0.2153  1.1522   134.6    37.7    20.6
2023 11 10    00 27 55.8 -13 05 47   0.2192  1.1495   132.3    39.6    20.7
2023 11 11    00 29 59.5 -15 56 01   0.2238  1.1469   130.0    41.4    20.8
...
2023 11 17    00 43 01.9 -30 03 07   0.2616  1.1329   117.3    50.9    21.3
...
2023 11 25    01 01 44.2 -42 04 20   0.3288  1.1185   105.0    58.5    22.0
...
2023 12 10    01 38 32.6 -52 47 53   0.4683  1.1062    92.1    62.8    22.9
M. P. C. Staff               (C) Copyright 2023 MPC           M.P.E.C. 2023-V153
    
    
More information about the Iaude
mailing list